IBE6849 LEMD-SACO

Flight info

Callsign IBE6849
Flight time N/A
Altitude 29000
Route ZMR L155 ADORO DCT EPOPO/N0458F280 DCT ARMED/M077F280 DCT 42N020W/M081F300 37N030W 30N040W/M081F320 27N043W 25N045W 19N050W DCT LEARP/N0486F320 DCT 11N055W DCT TRAPP/N0488F340 UM527 TIM UL322 BUVIP DCT KUMOS DCT SUSNO DCT PAKEM UL322 SEDMA/N0478F360 UL322 ESMUR/N0478F350 UL417 PUBUM/N0475F360 UZ112 LOGET LOGET2X
Aircraft A346/H-SDE2E3FGHIJ3J4J5M1RWXY/LB1D1

Departure

Time N/A
Airport Adolfo Suárez Madrid–Barajas Airport (LEMD)

Arrival

Time 2026-04-29 23:35
Airport Ingeniero Aeronáutico Ambrosio L.V. Taravella International Airport (SACO)
Time Latitude Longitude Altitude Speed Heading
2026-04-29 17:49 12.55801 -54.13408 37913 ft 480 kts 213°
2026-04-29 17:49 12.49919 -54.16703 37910 ft 481 kts 212°
2026-04-29 17:50 12.44031 -54.19997 37911 ft 481 kts 212°
2026-04-29 17:50 12.38151 -54.23286 37918 ft 481 kts 212°
2026-04-29 17:51 12.32279 -54.26568 37918 ft 482 kts 212°
2026-04-29 17:51 12.26376 -54.29864 37915 ft 482 kts 212°
2026-04-29 17:52 12.20482 -54.33154 37909 ft 482 kts 212°
2026-04-29 17:52 12.14590 -54.36441 37908 ft 482 kts 212°
2026-04-29 17:53 12.08701 -54.39725 37906 ft 482 kts 212°
2026-04-29 17:53 12.02779 -54.43026 37903 ft 482 kts 212°
2026-04-29 17:54 11.96878 -54.46311 37907 ft 482 kts 212°
2026-04-29 17:54 11.90976 -54.49597 37906 ft 481 kts 212°
2026-04-29 17:55 11.85116 -54.52858 37904 ft 481 kts 212°
2026-04-29 17:55 11.79191 -54.56154 37900 ft 481 kts 212°
2026-04-29 17:56 11.73301 -54.59430 37905 ft 482 kts 212°
2026-04-29 17:56 11.67405 -54.62706 37905 ft 481 kts 212°
2026-04-29 17:57 11.61541 -54.65963 37903 ft 481 kts 212°
2026-04-29 17:57 11.55641 -54.69237 37905 ft 481 kts 212°
2026-04-29 17:58 11.49762 -54.72499 37905 ft 481 kts 212°
2026-04-29 17:58 11.43879 -54.75761 37904 ft 482 kts 212°
2026-04-29 17:59 11.38001 -54.79016 37904 ft 481 kts 212°
2026-04-29 17:59 11.32088 -54.82293 37903 ft 481 kts 212°
2026-04-29 18:00 11.26227 -54.85538 37905 ft 480 kts 212°
2026-04-29 18:00 11.20322 -54.88806 37901 ft 481 kts 211°
2026-04-29 18:01 11.14462 -54.92047 37901 ft 482 kts 211°
2026-04-29 18:01 11.08563 -54.95302 37904 ft 482 kts 212°
2026-04-29 18:02 11.02630 -54.98576 37904 ft 483 kts 211°
2026-04-29 18:02 10.96730 -55.01780 37902 ft 482 kts 210°
2026-04-29 18:03 10.90728 -55.04901 37903 ft 481 kts 210°
2026-04-29 18:03 10.84762 -55.07996 37903 ft 481 kts 210°
2026-04-29 18:04 10.78813 -55.11089 37900 ft 481 kts 210°
2026-04-29 18:04 10.72816 -55.14209 37903 ft 481 kts 211°
2026-04-29 18:05 10.66847 -55.17312 37901 ft 482 kts 210°
2026-04-29 18:05 10.60889 -55.20409 37901 ft 482 kts 210°
2026-04-29 18:06 10.54921 -55.23510 37902 ft 482 kts 210°
2026-04-29 18:06 10.48895 -55.26640 37897 ft 483 kts 210°
2026-04-29 18:07 10.42920 -55.29742 37893 ft 484 kts 210°
2026-04-29 18:07 10.36889 -55.32873 37888 ft 484 kts 210°
2026-04-29 18:08 10.30908 -55.35973 37892 ft 484 kts 210°
2026-04-29 18:08 10.24901 -55.39088 37886 ft 485 kts 210°
2026-04-29 18:09 10.18868 -55.42213 37888 ft 486 kts 210°
2026-04-29 18:09 10.12834 -55.45339 37889 ft 485 kts 210°
2026-04-29 18:10 10.06789 -55.48469 37900 ft 485 kts 210°
2026-04-29 18:10 10.00784 -55.51576 37901 ft 485 kts 210°
2026-04-29 18:11 9.94780 -55.54683 37901 ft 485 kts 210°
2026-04-29 18:11 9.88731 -55.57811 37900 ft 485 kts 210°
2026-04-29 18:12 9.82718 -55.60918 37901 ft 486 kts 210°
2026-04-29 18:12 9.76676 -55.64040 37900 ft 486 kts 210°
2026-04-29 18:13 9.70661 -55.67144 37898 ft 485 kts 210°
2026-04-29 18:13 9.64642 -55.70250 37897 ft 485 kts 210°
2026-04-29 18:14 9.58626 -55.73352 37896 ft 485 kts 210°
2026-04-29 18:14 9.52589 -55.76465 37895 ft 484 kts 210°
2026-04-29 18:15 9.46578 -55.79564 37893 ft 485 kts 210°
2026-04-29 18:15 9.40559 -55.82665 37893 ft 485 kts 210°
2026-04-29 18:16 9.34514 -55.85779 37894 ft 484 kts 210°
2026-04-29 18:16 9.28493 -55.88877 37890 ft 484 kts 210°
2026-04-29 18:17 9.22485 -55.91964 37889 ft 484 kts 210°
2026-04-29 18:17 9.16466 -55.95057 37887 ft 485 kts 210°
2026-04-29 18:18 9.10577 -55.98365 37885 ft 482 kts 215°
2026-04-29 18:18 9.05109 -56.02245 37881 ft 480 kts 221°
2026-04-29 18:19 9.00035 -56.06604 37869 ft 478 kts 224°
2026-04-29 18:19 8.95029 -56.11032 37871 ft 479 kts 224°
2026-04-29 18:20 8.89987 -56.15483 37879 ft 478 kts 224°
2026-04-29 18:20 8.84985 -56.19891 37880 ft 479 kts 224°
2026-04-29 18:21 8.79941 -56.24332 37879 ft 479 kts 224°
2026-04-29 18:21 8.74920 -56.28751 37878 ft 479 kts 224°
2026-04-29 18:22 8.69912 -56.33156 37877 ft 478 kts 224°
2026-04-29 18:22 8.64869 -56.37591 37877 ft 478 kts 224°
2026-04-29 18:23 8.59873 -56.41984 37875 ft 479 kts 224°
2026-04-29 18:23 8.54805 -56.46437 37875 ft 479 kts 224°
2026-04-29 18:24 8.49775 -56.50856 37873 ft 479 kts 223°
2026-04-29 18:24 8.44748 -56.55269 37874 ft 479 kts 224°
2026-04-29 18:25 8.39711 -56.59689 37877 ft 479 kts 224°
2026-04-29 18:25 8.34697 -56.64088 37875 ft 479 kts 223°
2026-04-29 18:26 8.29652 -56.68511 37875 ft 478 kts 223°
2026-04-29 18:26 8.24628 -56.72916 37876 ft 479 kts 223°
2026-04-29 18:27 8.19605 -56.77318 37881 ft 479 kts 223°
2026-04-29 18:27 8.14576 -56.81721 37883 ft 479 kts 223°
2026-04-29 18:28 8.09515 -56.86152 37883 ft 479 kts 223°
2026-04-29 18:28 8.04500 -56.90539 37883 ft 478 kts 223°
2026-04-29 18:29 7.99448 -56.94954 37882 ft 478 kts 223°
2026-04-29 18:29 7.94430 -56.99339 37882 ft 479 kts 223°
2026-04-29 18:30 7.89379 -57.03766 37881 ft 479 kts 223°
2026-04-29 18:30 7.84349 -57.08176 37882 ft 479 kts 223°
2026-04-29 18:31 7.79308 -57.12586 37881 ft 479 kts 223°
2026-04-29 18:31 7.74289 -57.16973 37879 ft 479 kts 223°
2026-04-29 18:32 7.69254 -57.21371 37878 ft 478 kts 223°
2026-04-29 18:32 7.61685 -57.27977 37884 ft 479 kts 224°
2026-04-29 18:33 7.56664 -57.32359 37879 ft 479 kts 224°
2026-04-29 18:33 7.51603 -57.36773 37869 ft 479 kts 224°
2026-04-29 18:34 7.47408 -57.40430 37863 ft 479 kts 223°
2026-04-29 18:34 7.41542 -57.45540 37863 ft 479 kts 224°
2026-04-29 18:35 7.36506 -57.49923 37864 ft 479 kts 224°
2026-04-29 18:35 7.31454 -57.54353 37860 ft 479 kts 224°
2026-04-29 18:36 7.26450 -57.58761 37863 ft 479 kts 224°
2026-04-29 18:36 7.21446 -57.63161 37863 ft 479 kts 224°
2026-04-29 18:37 7.16414 -57.67578 37863 ft 479 kts 224°
2026-04-29 18:37 7.11378 -57.71996 37865 ft 479 kts 224°
2026-04-29 18:38 7.06352 -57.76403 37863 ft 478 kts 224°
2026-04-29 18:38 7.01355 -57.80782 37864 ft 479 kts 224°
2026-04-29 18:39 6.96316 -57.85198 37861 ft 479 kts 224°
2026-04-29 18:39 6.91282 -57.89608 37869 ft 479 kts 224°
2026-04-29 18:40 6.86236 -57.94027 37866 ft 479 kts 224°
2026-04-29 18:40 6.81204 -57.98432 37873 ft 478 kts 224°
2026-04-29 18:41 6.71160 -58.07216 37866 ft 478 kts 224°
2026-04-29 18:42 6.66133 -58.11610 37860 ft 479 kts 224°
2026-04-29 18:42 6.61103 -58.16002 37858 ft 479 kts 224°
2026-04-29 18:43 6.56022 -58.20330 37866 ft 480 kts 220°
2026-04-29 18:43 6.50379 -58.23980 37867 ft 484 kts 210°
2026-04-29 18:44 6.44152 -58.26684 37864 ft 487 kts 201°
2026-04-29 18:44 6.37573 -58.28348 37864 ft 490 kts 193°
2026-04-29 18:45 6.30808 -58.29588 37863 ft 491 kts 193°
2026-04-29 18:45 6.24090 -58.30812 37865 ft 491 kts 193°
2026-04-29 18:46 6.17341 -58.32057 37863 ft 490 kts 193°
2026-04-29 18:46 6.10643 -58.33299 37857 ft 490 kts 193°
2026-04-29 18:47 6.03912 -58.34548 37850 ft 490 kts 193°
2026-04-29 18:47 5.97173 -58.35799 37849 ft 490 kts 193°
2026-04-29 18:48 5.90430 -58.37049 37849 ft 490 kts 193°
2026-04-29 18:48 5.83749 -58.38286 37849 ft 490 kts 193°
2026-04-29 18:49 5.77012 -58.39534 37851 ft 489 kts 193°
2026-04-29 18:49 5.70322 -58.40770 37852 ft 489 kts 193°
2026-04-29 18:50 5.63617 -58.42008 37854 ft 489 kts 193°
2026-04-29 18:50 5.56907 -58.43279 37858 ft 488 kts 193°
2026-04-29 18:51 5.50214 -58.44564 37861 ft 488 kts 193°
2026-04-29 18:51 5.43535 -58.45838 37864 ft 488 kts 193°
2026-04-29 18:52 5.36841 -58.47109 37867 ft 489 kts 193°
2026-04-29 18:52 5.30123 -58.48382 37868 ft 488 kts 193°
2026-04-29 18:53 5.23455 -58.49646 37869 ft 488 kts 193°
2026-04-29 18:53 5.16739 -58.50918 37871 ft 488 kts 193°
2026-04-29 18:54 5.10079 -58.52179 37874 ft 487 kts 193°
2026-04-29 18:54 5.03410 -58.53441 37880 ft 487 kts 194°
2026-04-29 18:55 4.96718 -58.54708 37884 ft 487 kts 193°
2026-04-29 18:55 4.90072 -58.55967 37884 ft 487 kts 193°
2026-04-29 18:56 4.83414 -58.57228 37878 ft 487 kts 193°
2026-04-29 18:56 4.76699 -58.58497 37870 ft 487 kts 193°
2026-04-29 18:57 4.70022 -58.59758 37861 ft 488 kts 193°
2026-04-29 18:57 4.63354 -58.61019 37850 ft 488 kts 193°
2026-04-29 18:58 4.56656 -58.62287 37841 ft 487 kts 193°
2026-04-29 18:58 4.49969 -58.63550 37836 ft 487 kts 193°
2026-04-29 18:59 4.43327 -58.64805 37837 ft 486 kts 193°
2026-04-29 18:59 4.36628 -58.66071 37842 ft 486 kts 193°
2026-04-29 19:00 4.29960 -58.67329 37845 ft 488 kts 193°
2026-04-29 19:00 4.23294 -58.68588 37850 ft 488 kts 193°
2026-04-29 19:01 4.16573 -58.69855 37847 ft 488 kts 193°
2026-04-29 19:01 4.09894 -58.71110 37840 ft 487 kts 193°
2026-04-29 19:02 4.04315 -58.72158 37834 ft 487 kts 193°
2026-04-29 19:02 3.96572 -58.73613 37831 ft 487 kts 193°
2026-04-29 19:03 3.89897 -58.74867 37836 ft 487 kts 193°
2026-04-29 19:03 3.83192 -58.76143 37833 ft 487 kts 193°
2026-04-29 19:04 3.76535 -58.77419 37834 ft 488 kts 193°
2026-04-29 19:04 3.69863 -58.78692 37837 ft 488 kts 193°
2026-04-29 19:05 3.63137 -58.79969 37832 ft 488 kts 193°
2026-04-29 19:05 3.56491 -58.81229 37838 ft 487 kts 193°
2026-04-29 19:06 3.49805 -58.82496 37835 ft 487 kts 193°
2026-04-29 19:07 3.39768 -58.84399 37842 ft 487 kts 192°
2026-04-29 19:07 3.33114 -58.85658 37842 ft 487 kts 193°
2026-04-29 19:08 3.26409 -58.86928 37838 ft 487 kts 192°
2026-04-29 19:08 3.19741 -58.88190 37830 ft 487 kts 193°
2026-04-29 19:09 3.13059 -58.89456 37839 ft 487 kts 193°
2026-04-29 19:09 3.06387 -58.90719 37839 ft 486 kts 192°
2026-04-29 19:10 2.99747 -58.91975 37838 ft 485 kts 192°
2026-04-29 19:10 2.93080 -58.93238 37840 ft 486 kts 192°
2026-04-29 19:11 2.86429 -58.94497 37834 ft 486 kts 192°
2026-04-29 19:11 2.79771 -58.95757 37836 ft 486 kts 192°
2026-04-29 19:12 2.73113 -58.97015 37834 ft 486 kts 192°
2026-04-29 19:12 2.66434 -58.98279 37837 ft 485 kts 192°
2026-04-29 19:13 2.59795 -58.99535 37836 ft 485 kts 192°
2026-04-29 19:13 2.53174 -59.00786 37838 ft 485 kts 192°
2026-04-29 19:14 2.46508 -59.02047 37839 ft 485 kts 192°
2026-04-29 19:14 2.39854 -59.03304 37852 ft 484 kts 192°
2026-04-29 19:15 2.33242 -59.04554 37853 ft 484 kts 192°
2026-04-29 19:15 2.26574 -59.05814 37863 ft 484 kts 192°
2026-04-29 19:16 2.19960 -59.07065 37868 ft 483 kts 192°
2026-04-29 19:16 2.13360 -59.08313 37869 ft 483 kts 192°
2026-04-29 19:17 2.06730 -59.09566 37877 ft 482 kts 191°
2026-04-29 19:17 2.00150 -59.10809 37881 ft 482 kts 191°
2026-04-29 19:18 1.93542 -59.12056 37885 ft 482 kts 191°
2026-04-29 19:18 1.86924 -59.13305 37886 ft 482 kts 191°
2026-04-29 19:19 1.80331 -59.14549 37884 ft 482 kts 192°
2026-04-29 19:19 1.73718 -59.15797 37884 ft 481 kts 192°
2026-04-29 19:20 1.67104 -59.17046 37891 ft 481 kts 191°
2026-04-29 19:20 1.60536 -59.18286 37897 ft 481 kts 191°
2026-04-29 19:21 1.53935 -59.19530 37905 ft 482 kts 191°
2026-04-29 19:21 1.47346 -59.20768 37907 ft 482 kts 191°
2026-04-29 19:22 1.40732 -59.22011 37897 ft 481 kts 191°
2026-04-29 19:22 1.34156 -59.23278 37889 ft 481 kts 192°
2026-04-29 19:23 1.27555 -59.24638 37883 ft 480 kts 192°
2026-04-29 19:23 1.20993 -59.25986 37874 ft 480 kts 192°
2026-04-29 19:24 1.14452 -59.27320 37862 ft 480 kts 192°
2026-04-29 19:24 1.07873 -59.28659 37852 ft 480 kts 192°
2026-04-29 19:25 1.01320 -59.29991 37841 ft 478 kts 192°
2026-04-29 19:25 0.94812 -59.31313 37836 ft 478 kts 192°
2026-04-29 19:26 0.88239 -59.32646 37835 ft 479 kts 192°
2026-04-29 19:26 0.81702 -59.33974 37836 ft 479 kts 192°
2026-04-29 19:27 0.75175 -59.35298 37834 ft 479 kts 192°
2026-04-29 19:27 0.68633 -59.36627 37834 ft 480 kts 192°
2026-04-29 19:28 0.62030 -59.37969 37840 ft 481 kts 192°
2026-04-29 19:28 0.55505 -59.39293 37844 ft 480 kts 192°
2026-04-29 19:29 0.48923 -59.40629 37850 ft 479 kts 192°
2026-04-29 19:29 0.42379 -59.41959 37852 ft 480 kts 192°
2026-04-29 19:30 0.35818 -59.43291 37849 ft 482 kts 192°
2026-04-29 19:30 0.29230 -59.44627 37846 ft 482 kts 192°
2026-04-29 19:31 0.22634 -59.45967 37841 ft 482 kts 192°
2026-04-29 19:31 0.16042 -59.47305 37841 ft 482 kts 191°
2026-04-29 19:32 0.09434 -59.48649 37837 ft 482 kts 191°
2026-04-29 19:32 0.02854 -59.49981 37832 ft 481 kts 191°
2026-04-29 19:33 -0.03707 -59.51313 37828 ft 482 kts 191°
2026-04-29 19:33 -0.10284 -59.52648 37829 ft 480 kts 191°
2026-04-29 19:34 -0.16861 -59.53980 37832 ft 481 kts 191°
2026-04-29 19:34 -0.23423 -59.55312 37834 ft 481 kts 191°
2026-04-29 19:35 -0.30016 -59.56651 37829 ft 480 kts 191°
2026-04-29 19:35 -0.36562 -59.57977 37827 ft 479 kts 191°
2026-04-29 19:36 -0.43125 -59.59309 37825 ft 479 kts 191°
2026-04-29 19:36 -0.49642 -59.60630 37823 ft 479 kts 191°
2026-04-29 19:37 -0.56189 -59.61957 37819 ft 480 kts 191°
2026-04-29 19:37 -0.62777 -59.63290 37818 ft 480 kts 191°
2026-04-29 19:38 -0.69300 -59.64607 37817 ft 480 kts 191°
2026-04-29 19:38 -0.75880 -59.65938 37816 ft 479 kts 191°
2026-04-29 19:39 -0.82402 -59.67302 37815 ft 478 kts 191°
2026-04-29 19:39 -0.88913 -59.68703 37815 ft 479 kts 191°
2026-04-29 19:40 -0.95477 -59.70106 37816 ft 479 kts 191°
2026-04-29 19:40 -1.01983 -59.71491 37811 ft 479 kts 191°
2026-04-29 19:41 -1.08527 -59.72881 37806 ft 479 kts 191°
2026-04-29 19:41 -1.15084 -59.74270 37805 ft 479 kts 191°
2026-04-29 19:42 -1.21579 -59.75648 37808 ft 479 kts 191°
2026-04-29 19:42 -1.28135 -59.77038 37812 ft 479 kts 191°
2026-04-29 19:43 -1.34672 -59.78426 37816 ft 479 kts 191°
2026-04-29 19:43 -1.41209 -59.79811 37818 ft 479 kts 191°
2026-04-29 19:44 -1.47728 -59.81194 37816 ft 479 kts 191°
2026-04-29 19:44 -1.54253 -59.82578 37816 ft 479 kts 191°
2026-04-29 19:45 -1.60810 -59.83970 37814 ft 480 kts 191°
2026-04-29 19:45 -1.67370 -59.85362 37815 ft 479 kts 191°
2026-04-29 19:46 -1.73907 -59.86749 37814 ft 479 kts 191°
2026-04-29 19:46 -1.80427 -59.88134 37816 ft 480 kts 191°
2026-04-29 19:47 -1.86970 -59.89521 37816 ft 480 kts 191°
2026-04-29 19:47 -1.93551 -59.90920 37818 ft 480 kts 191°
2026-04-29 19:48 -2.00077 -59.92305 37819 ft 480 kts 191°
2026-04-29 19:48 -2.06628 -59.93697 37819 ft 480 kts 191°
2026-04-29 19:49 -2.13177 -59.95088 37822 ft 481 kts 191°
2026-04-29 19:49 -2.19766 -59.96486 37817 ft 480 kts 191°
2026-04-29 19:50 -2.26320 -59.97877 37820 ft 480 kts 191°
2026-04-29 19:50 -2.32870 -59.99269 37819 ft 481 kts 191°
2026-04-29 19:51 -2.39430 -60.00663 37812 ft 482 kts 191°
2026-04-29 19:51 -2.46019 -60.02063 37814 ft 482 kts 191°
2026-04-29 19:52 -2.52628 -60.03468 37810 ft 483 kts 191°
2026-04-29 19:52 -2.59214 -60.04868 37804 ft 483 kts 191°
2026-04-29 19:53 -2.65829 -60.06274 37805 ft 483 kts 191°
2026-04-29 19:53 -2.72393 -60.07668 37806 ft 483 kts 191°
2026-04-29 19:54 -2.82285 -60.09770 37808 ft 484 kts 191°
2026-04-29 19:54 -2.88920 -60.11181 37815 ft 485 kts 191°
2026-04-29 19:55 -2.95540 -60.12589 37816 ft 485 kts 191°
2026-04-29 19:55 -3.02169 -60.14000 37811 ft 486 kts 191°
2026-04-29 19:56 -3.08764 -60.15402 37810 ft 485 kts 191°
2026-04-29 19:56 -3.15410 -60.16815 37808 ft 485 kts 191°
2026-04-29 19:57 -3.20929 -60.17988 37807 ft 485 kts 191°
2026-04-29 19:57 -3.28683 -60.19637 37801 ft 486 kts 191°
2026-04-29 19:58 -3.35291 -60.21043 37799 ft 485 kts 191°
2026-04-29 19:58 -3.41937 -60.22457 37791 ft 485 kts 191°
2026-04-29 19:59 -3.48521 -60.23859 37782 ft 485 kts 191°
2026-04-29 19:59 -3.55185 -60.25275 37782 ft 485 kts 191°
2026-04-29 20:00 -3.61795 -60.26680 37781 ft 485 kts 191°
2026-04-29 20:00 -3.68383 -60.28080 37786 ft 485 kts 191°
2026-04-29 20:01 -3.75022 -60.29493 37789 ft 484 kts 191°
2026-04-29 20:01 -3.81642 -60.30897 37784 ft 484 kts 191°
2026-04-29 20:02 -3.88234 -60.32293 37783 ft 484 kts 191°
2026-04-29 20:02 -3.93720 -60.33459 37783 ft 484 kts 191°
2026-04-29 20:03 -4.01417 -60.35209 37781 ft 484 kts 192°
2026-04-29 20:03 -4.08001 -60.36741 37786 ft 484 kts 192°
2026-04-29 20:04 -4.14554 -60.38253 37790 ft 484 kts 192°
2026-04-29 20:04 -4.21139 -60.39767 37791 ft 484 kts 192°
2026-04-29 20:05 -4.27714 -60.41276 37792 ft 484 kts 192°
2026-04-29 20:05 -4.34304 -60.42788 37789 ft 484 kts 192°
2026-04-29 20:06 -4.40885 -60.44297 37788 ft 483 kts 192°
2026-04-29 20:06 -4.47485 -60.45812 37789 ft 484 kts 192°
2026-04-29 20:07 -4.54027 -60.47313 37786 ft 483 kts 192°
2026-04-29 20:07 -4.60627 -60.48830 37787 ft 483 kts 192°
2026-04-29 20:08 -4.66100 -60.50085 37788 ft 483 kts 192°
2026-04-29 20:08 -4.73726 -60.51836 37794 ft 483 kts 192°
2026-04-29 20:09 -4.80286 -60.53342 37793 ft 482 kts 192°
2026-04-29 20:09 -4.86851 -60.54850 37795 ft 482 kts 192°
2026-04-29 20:10 -4.93419 -60.56359 37793 ft 481 kts 192°
2026-04-29 20:10 -4.99963 -60.57863 37796 ft 481 kts 192°
2026-04-29 20:11 -5.06459 -60.59356 37794 ft 481 kts 192°
2026-04-29 20:11 -5.13011 -60.60862 37795 ft 481 kts 192°
2026-04-29 20:12 -5.19589 -60.62376 37797 ft 482 kts 192°
2026-04-29 20:12 -5.26132 -60.63880 37800 ft 481 kts 192°
2026-04-29 20:13 -5.32664 -60.65383 37799 ft 481 kts 192°
2026-04-29 20:13 -5.39189 -60.66883 37800 ft 481 kts 192°
2026-04-29 20:14 -5.45737 -60.68390 37799 ft 481 kts 192°
2026-04-29 20:14 -5.52301 -60.69902 37800 ft 482 kts 192°
2026-04-29 20:15 -5.58846 -60.71410 37803 ft 482 kts 192°
2026-04-29 20:15 -5.65412 -60.72922 37800 ft 482 kts 192°
2026-04-29 20:16 -5.71947 -60.74427 37801 ft 482 kts 192°
2026-04-29 20:16 -5.78498 -60.75936 37797 ft 482 kts 192°
2026-04-29 20:17 -5.85074 -60.77452 37793 ft 482 kts 192°
2026-04-29 20:17 -5.91655 -60.78968 37796 ft 482 kts 192°
2026-04-29 20:18 -5.98191 -60.80477 37794 ft 482 kts 192°
2026-04-29 20:18 -6.04755 -60.81991 37793 ft 483 kts 192°
2026-04-29 20:19 -6.11358 -60.83515 37796 ft 483 kts 192°
2026-04-29 20:19 -6.17909 -60.85028 37795 ft 483 kts 192°
2026-04-29 20:20 -6.24467 -60.86540 37801 ft 483 kts 192°
2026-04-29 20:20 -6.31025 -60.88052 37803 ft 483 kts 192°
2026-04-29 20:21 -6.37593 -60.89568 37808 ft 483 kts 192°
2026-04-29 20:21 -6.44142 -60.91081 37818 ft 483 kts 192°
2026-04-29 20:22 -6.50707 -60.92598 37820 ft 483 kts 192°
2026-04-29 20:22 -6.57276 -60.94119 37814 ft 483 kts 192°
2026-04-29 20:23 -6.63849 -60.95638 37814 ft 483 kts 192°
2026-04-29 20:23 -6.70398 -60.97152 37811 ft 483 kts 192°
2026-04-29 20:24 -6.76978 -60.98674 37814 ft 483 kts 192°
2026-04-29 20:24 -6.83562 -61.00197 37811 ft 483 kts 192°
2026-04-29 20:25 -6.90095 -61.01709 37809 ft 483 kts 192°
2026-04-29 20:25 -6.96681 -61.03234 37807 ft 482 kts 192°
2026-04-29 20:26 -7.03236 -61.04752 37811 ft 483 kts 192°
2026-04-29 20:26 -7.09791 -61.06269 37812 ft 483 kts 192°
2026-04-29 20:27 -7.15271 -61.07538 37815 ft 484 kts 192°
2026-04-29 20:27 -7.22957 -61.09320 37814 ft 484 kts 192°
2026-04-29 20:28 -7.29498 -61.10835 37812 ft 483 kts 192°
2026-04-29 20:28 -7.36062 -61.12356 37816 ft 483 kts 192°
2026-04-29 20:29 -7.42653 -61.13885 37817 ft 483 kts 192°
2026-04-29 20:29 -7.49195 -61.15405 37817 ft 484 kts 192°
2026-04-29 20:30 -7.55808 -61.16940 37814 ft 484 kts 192°
2026-04-29 20:30 -7.62389 -61.18464 37816 ft 484 kts 192°
2026-04-29 20:31 -7.68961 -61.19984 37815 ft 484 kts 192°
2026-04-29 20:31 -7.75544 -61.21504 37816 ft 484 kts 192°
2026-04-29 20:32 -7.82153 -61.23037 37815 ft 485 kts 192°
2026-04-29 20:32 -7.88723 -61.24546 37818 ft 484 kts 192°
2026-04-29 20:33 -7.95312 -61.26049 37822 ft 485 kts 192°
2026-04-29 20:33 -8.01942 -61.27558 37829 ft 485 kts 191°
2026-04-29 20:34 -8.08502 -61.29051 37832 ft 485 kts 192°
2026-04-29 20:34 -8.15132 -61.30557 37832 ft 485 kts 192°
2026-04-29 20:35 -8.21722 -61.32055 37833 ft 485 kts 191°
2026-04-29 20:35 -8.28319 -61.33551 37834 ft 486 kts 191°
2026-04-29 20:36 -8.34961 -61.35059 37835 ft 486 kts 192°
2026-04-29 20:36 -8.41571 -61.36575 37836 ft 486 kts 192°
2026-04-29 20:37 -8.48169 -61.38089 37833 ft 487 kts 192°
2026-04-29 20:37 -8.54801 -61.39603 37829 ft 486 kts 192°
2026-04-29 20:38 -8.61408 -61.41108 37823 ft 487 kts 192°
2026-04-29 20:38 -8.68009 -61.42612 37819 ft 487 kts 191°
2026-04-29 20:39 -8.74677 -61.44130 37815 ft 487 kts 192°
2026-04-29 20:39 -8.81321 -61.45643 37814 ft 489 kts 191°
2026-04-29 20:40 -8.87946 -61.47151 37816 ft 489 kts 192°
2026-04-29 20:40 -8.94631 -61.48673 37821 ft 489 kts 192°
2026-04-29 20:41 -9.01283 -61.50190 37826 ft 490 kts 192°
2026-04-29 20:41 -9.07934 -61.51702 37828 ft 490 kts 192°
2026-04-29 20:42 -9.14611 -61.53219 37829 ft 489 kts 192°
2026-04-29 20:42 -9.21243 -61.54733 37831 ft 489 kts 192°
2026-04-29 20:43 -9.27912 -61.56249 37830 ft 489 kts 192°
2026-04-29 20:43 -9.34519 -61.57740 37827 ft 487 kts 192°
2026-04-29 20:44 -9.41161 -61.59237 37820 ft 487 kts 192°
2026-04-29 20:44 -9.47766 -61.60723 37822 ft 486 kts 192°
2026-04-29 20:45 -9.54390 -61.62210 37826 ft 486 kts 192°
2026-04-29 20:45 -9.61016 -61.63703 37830 ft 486 kts 192°
2026-04-29 20:46 -9.67623 -61.65292 37828 ft 485 kts 193°
2026-04-29 20:46 -9.74174 -61.66895 37827 ft 485 kts 193°
2026-04-29 20:47 -9.80743 -61.68496 37833 ft 482 kts 193°
2026-04-29 20:47 -9.87258 -61.70098 37846 ft 483 kts 193°
2026-04-29 20:48 -9.93818 -61.71698 37852 ft 482 kts 193°
2026-04-29 20:48 -10.00364 -61.73291 37854 ft 481 kts 193°
2026-04-29 20:49 -10.06866 -61.74873 37854 ft 481 kts 193°
2026-04-29 20:49 -10.13402 -61.76464 37856 ft 481 kts 193°
2026-04-29 20:50 -10.19955 -61.78060 37858 ft 482 kts 193°
2026-04-29 20:50 -10.26461 -61.79644 37863 ft 482 kts 193°
2026-04-29 20:51 -10.33024 -61.81243 37861 ft 482 kts 193°
2026-04-29 20:51 -10.39552 -61.82832 37861 ft 483 kts 193°
2026-04-29 20:52 -10.46083 -61.84423 37859 ft 484 kts 193°
2026-04-29 20:52 -10.52652 -61.86023 37852 ft 484 kts 193°
2026-04-29 20:53 -10.59230 -61.87627 37849 ft 484 kts 193°
2026-04-29 20:53 -10.65837 -61.89236 37845 ft 485 kts 193°
2026-04-29 20:54 -10.75700 -61.91637 37845 ft 486 kts 193°
2026-04-29 20:55 -10.82280 -61.93237 37845 ft 486 kts 194°
2026-04-29 20:55 -10.88904 -61.94794 37849 ft 487 kts 191°
2026-04-29 20:56 -10.95582 -61.95934 37846 ft 486 kts 189°
2026-04-29 20:56 -11.02319 -61.97004 37851 ft 487 kts 189°
2026-04-29 20:57 -11.09022 -61.98070 37853 ft 487 kts 189°
2026-04-29 20:57 -11.15748 -61.99138 37847 ft 487 kts 189°
2026-04-29 20:58 -11.22456 -62.00197 37846 ft 488 kts 189°
2026-04-29 20:58 -11.29193 -62.01257 37845 ft 488 kts 189°
2026-04-29 20:59 -11.35929 -62.02325 37853 ft 489 kts 189°
2026-04-29 20:59 -11.42649 -62.03410 37853 ft 488 kts 189°
2026-04-29 21:00 -11.49373 -62.04487 37856 ft 489 kts 189°
2026-04-29 21:00 -11.56132 -62.05561 37862 ft 489 kts 189°
2026-04-29 21:01 -11.62866 -62.06627 37872 ft 489 kts 189°
2026-04-29 21:01 -11.69570 -62.07686 37873 ft 489 kts 189°
2026-04-29 21:02 -11.76323 -62.08772 37880 ft 490 kts 191°
2026-04-29 21:02 -11.83041 -62.10054 37888 ft 490 kts 192°
2026-04-29 21:03 -11.89776 -62.11366 37897 ft 489 kts 192°
2026-04-29 21:03 -11.96460 -62.12645 37910 ft 489 kts 192°
2026-04-29 21:04 -12.03164 -62.13918 37921 ft 489 kts 192°
2026-04-29 21:04 -12.09903 -62.15194 37922 ft 489 kts 192°
2026-04-29 21:05 -12.16599 -62.16459 37913 ft 490 kts 192°
2026-04-29 21:05 -12.23303 -62.17726 37901 ft 489 kts 192°
2026-04-29 21:06 -12.30014 -62.19011 37895 ft 490 kts 192°
2026-04-29 21:06 -12.36751 -62.20309 37882 ft 490 kts 192°
2026-04-29 21:07 -12.43464 -62.21592 37877 ft 490 kts 192°
2026-04-29 21:07 -12.50144 -62.22863 37863 ft 490 kts 192°
2026-04-29 21:08 -12.56895 -62.24146 37851 ft 489 kts 192°
2026-04-29 21:08 -12.63591 -62.25415 37847 ft 490 kts 192°
2026-04-29 21:09 -12.70308 -62.26689 37845 ft 491 kts 192°
2026-04-29 21:09 -12.77048 -62.27985 37844 ft 491 kts 192°
2026-04-29 21:10 -12.83772 -62.29286 37850 ft 491 kts 192°
2026-04-29 21:10 -12.90482 -62.30573 37850 ft 490 kts 192°
2026-04-29 21:11 -12.97231 -62.31863 37847 ft 490 kts 192°
2026-04-29 21:11 -13.03919 -62.33139 37847 ft 490 kts 192°
2026-04-29 21:12 -13.10657 -62.34420 37846 ft 491 kts 192°
2026-04-29 21:12 -13.17360 -62.35699 37850 ft 490 kts 192°
2026-04-29 21:13 -13.24122 -62.36919 37848 ft 491 kts 191°
2026-04-29 21:13 -13.30840 -62.38111 37848 ft 490 kts 191°
2026-04-29 21:14 -13.37575 -62.39306 37853 ft 490 kts 191°
2026-04-29 21:14 -13.44327 -62.40504 37853 ft 490 kts 191°
2026-04-29 21:15 -13.51079 -62.41704 37858 ft 491 kts 191°
2026-04-29 21:15 -13.57822 -62.42900 37859 ft 491 kts 192°
2026-04-29 21:16 -13.64570 -62.44095 37860 ft 490 kts 192°
2026-04-29 21:16 -13.71303 -62.45291 37853 ft 490 kts 192°
2026-04-29 21:17 -13.78015 -62.46494 37846 ft 490 kts 192°
2026-04-29 21:17 -13.84623 -62.47683 37845 ft 490 kts 192°
2026-04-29 21:18 -13.91331 -62.48879 37845 ft 490 kts 192°
2026-04-29 21:18 -13.98093 -62.50081 37843 ft 490 kts 192°
2026-04-29 21:19 -14.04798 -62.51271 37841 ft 489 kts 192°
2026-04-29 21:19 -14.11566 -62.52471 37841 ft 490 kts 192°
2026-04-29 21:20 -14.18294 -62.53664 37843 ft 490 kts 192°
2026-04-29 21:20 -14.25021 -62.54860 37843 ft 489 kts 192°
2026-04-29 21:21 -14.31763 -62.56057 37843 ft 490 kts 192°
2026-04-29 21:21 -14.38504 -62.57256 37844 ft 489 kts 192°
2026-04-29 21:22 -14.45241 -62.58456 37844 ft 489 kts 192°
2026-04-29 21:22 -14.51938 -62.59649 37848 ft 488 kts 192°
2026-04-29 21:23 -14.58666 -62.60845 37853 ft 488 kts 192°
2026-04-29 21:23 -14.65368 -62.62040 37855 ft 489 kts 192°
2026-04-29 21:24 -14.72100 -62.63239 37859 ft 489 kts 192°
2026-04-29 21:24 -14.78832 -62.64437 37861 ft 489 kts 192°
2026-04-29 21:25 -14.85542 -62.65630 37864 ft 489 kts 192°
2026-04-29 21:25 -14.92256 -62.66822 37867 ft 488 kts 192°
2026-04-29 21:26 -14.99010 -62.68019 37870 ft 488 kts 192°
2026-04-29 21:26 -15.05690 -62.69214 37872 ft 488 kts 193°
2026-04-29 21:27 -15.12387 -62.70423 37873 ft 489 kts 193°
2026-04-29 21:27 -15.19133 -62.71630 37878 ft 489 kts 193°
2026-04-29 21:28 -15.25831 -62.72820 37882 ft 489 kts 193°
2026-04-29 21:28 -15.32576 -62.74018 37884 ft 488 kts 193°
2026-04-29 21:29 -15.39286 -62.75209 37884 ft 489 kts 193°
2026-04-29 21:29 -15.46010 -62.76404 37885 ft 489 kts 193°
2026-04-29 21:30 -15.52731 -62.77597 37886 ft 489 kts 193°
2026-04-29 21:30 -15.59476 -62.78798 37888 ft 490 kts 193°
2026-04-29 21:31 -15.66225 -62.79999 37890 ft 489 kts 193°
2026-04-29 21:31 -15.72961 -62.81198 37891 ft 489 kts 193°
2026-04-29 21:32 -15.79677 -62.82395 37892 ft 490 kts 193°
2026-04-29 21:32 -15.86445 -62.83599 37891 ft 490 kts 193°
2026-04-29 21:33 -15.93151 -62.84796 37891 ft 490 kts 193°
2026-04-29 21:33 -15.99869 -62.85993 37892 ft 490 kts 193°
2026-04-29 21:34 -16.06614 -62.87194 37892 ft 490 kts 193°
2026-04-29 21:34 -16.13348 -62.88396 37891 ft 490 kts 193°
2026-04-29 21:35 -16.20109 -62.89599 37891 ft 491 kts 193°
2026-04-29 21:35 -16.26844 -62.90793 37882 ft 491 kts 193°
2026-04-29 21:36 -16.33591 -62.92003 37874 ft 490 kts 194°
2026-04-29 21:36 -16.40309 -62.93205 37866 ft 491 kts 193°
2026-04-29 21:37 -16.47089 -62.94407 37861 ft 490 kts 193°
2026-04-29 21:37 -16.53822 -62.95593 37857 ft 491 kts 193°
2026-04-29 21:38 -16.60592 -62.96787 37857 ft 492 kts 193°
2026-04-29 21:38 -16.67321 -62.97971 37855 ft 492 kts 194°
2026-04-29 21:39 -16.74086 -62.99165 37855 ft 492 kts 194°
2026-04-29 21:39 -16.80857 -63.00359 37856 ft 492 kts 194°
2026-04-29 21:40 -16.87645 -63.01557 37855 ft 492 kts 194°
2026-04-29 21:40 -16.94399 -63.02750 37856 ft 493 kts 194°
2026-04-29 21:41 -17.01198 -63.03951 37854 ft 494 kts 194°
2026-04-29 21:41 -17.07970 -63.05151 37855 ft 493 kts 194°
2026-04-29 21:42 -17.14785 -63.06357 37855 ft 494 kts 194°
2026-04-29 21:42 -17.21537 -63.07553 37857 ft 492 kts 194°
2026-04-29 21:43 -17.28300 -63.08750 37860 ft 492 kts 194°
2026-04-29 21:43 -17.35084 -63.09951 37863 ft 493 kts 194°
2026-04-29 21:44 -17.41864 -63.11151 37868 ft 493 kts 194°
2026-04-29 21:44 -17.48620 -63.12344 37872 ft 493 kts 194°
2026-04-29 21:45 -17.55392 -63.13541 37873 ft 492 kts 194°
2026-04-29 21:45 -17.62187 -63.14858 37876 ft 490 kts 198°
2026-04-29 21:46 -17.68743 -63.16766 37875 ft 488 kts 201°
2026-04-29 21:46 -17.75244 -63.18849 37878 ft 489 kts 201°
2026-04-29 21:47 -17.81793 -63.20943 37882 ft 489 kts 201°
2026-04-29 21:47 -17.88296 -63.23011 37891 ft 488 kts 201°
2026-04-29 21:48 -17.94818 -63.25085 37905 ft 489 kts 201°
2026-04-29 21:48 -18.01352 -63.27159 37914 ft 488 kts 202°
2026-04-29 21:49 -18.07867 -63.29236 37916 ft 488 kts 201°
2026-04-29 21:49 -18.14372 -63.31305 37941 ft 489 kts 202°
2026-04-29 21:50 -18.20872 -63.33377 37931 ft 487 kts 202°
2026-04-29 21:50 -18.27383 -63.35451 37940 ft 488 kts 202°
2026-04-29 21:51 -18.33909 -63.37535 37937 ft 489 kts 202°
2026-04-29 21:51 -18.43676 -63.40651 37943 ft 489 kts 202°
2026-04-29 21:52 -18.50219 -63.42741 37949 ft 488 kts 202°
2026-04-29 21:52 -18.56722 -63.44822 37952 ft 488 kts 202°
2026-04-29 21:53 -18.63223 -63.46899 37962 ft 487 kts 202°
2026-04-29 21:53 -18.69712 -63.48980 37967 ft 487 kts 202°
2026-04-29 21:54 -18.76214 -63.51059 37976 ft 488 kts 202°
2026-04-29 21:54 -18.82708 -63.53135 37980 ft 487 kts 202°
2026-04-29 21:55 -18.89253 -63.55231 37984 ft 488 kts 203°
2026-04-29 21:55 -18.95754 -63.57313 37978 ft 487 kts 202°
2026-04-29 21:56 -19.02238 -63.59371 37972 ft 487 kts 202°
2026-04-29 21:56 -19.08775 -63.61443 37973 ft 488 kts 202°
2026-04-29 21:57 -19.15288 -63.63502 37984 ft 488 kts 202°
2026-04-29 21:57 -19.21809 -63.65565 37998 ft 487 kts 203°
2026-04-29 21:58 -19.28282 -63.67612 38014 ft 486 kts 203°
2026-04-29 21:58 -19.34777 -63.69669 38013 ft 487 kts 203°
2026-04-29 21:59 -19.41297 -63.71736 38014 ft 487 kts 203°
2026-04-29 21:59 -19.47796 -63.73797 38021 ft 487 kts 203°
2026-04-29 22:00 -19.54336 -63.75874 38035 ft 488 kts 203°
2026-04-29 22:00 -19.60810 -63.77930 38042 ft 488 kts 203°
2026-04-29 22:01 -19.67357 -63.80008 38067 ft 487 kts 203°
2026-04-29 22:01 -19.73855 -63.82073 38080 ft 487 kts 203°
2026-04-29 22:02 -19.80400 -63.84152 38085 ft 488 kts 204°
2026-04-29 22:02 -19.86899 -63.86214 38086 ft 488 kts 203°
2026-04-29 22:03 -19.93390 -63.88282 38087 ft 488 kts 204°
2026-04-29 22:03 -19.99924 -63.90360 38090 ft 488 kts 203°
2026-04-29 22:04 -20.06499 -63.92466 38387 ft 491 kts 204°
2026-04-29 22:04 -20.09774 -63.93509 38748 ft 490 kts 204°
2026-04-29 22:04 -20.13045 -63.94549 39103 ft 488 kts 204°
2026-04-29 22:05 -20.16304 -63.95584 39432 ft 487 kts 204°
2026-04-29 22:05 -20.19548 -63.96615 39729 ft 486 kts 203°
2026-04-29 22:05 -20.26043 -63.98679 40060 ft 484 kts 203°
2026-04-29 22:06 -20.29262 -63.99702 40050 ft 483 kts 204°
2026-04-29 22:06 -20.35708 -64.01752 40047 ft 482 kts 204°
2026-04-29 22:07 -20.42118 -64.03790 40063 ft 482 kts 204°
2026-04-29 22:07 -20.48615 -64.05856 40077 ft 483 kts 204°
2026-04-29 22:08 -20.55056 -64.07904 40072 ft 483 kts 204°
2026-04-29 22:08 -20.61497 -64.09950 40061 ft 482 kts 204°
2026-04-29 22:09 -20.67916 -64.12000 40056 ft 482 kts 204°
2026-04-29 22:09 -20.74345 -64.14060 40047 ft 481 kts 204°
2026-04-29 22:10 -20.80821 -64.16124 40037 ft 482 kts 204°
2026-04-29 22:10 -20.87221 -64.18157 40065 ft 482 kts 204°
2026-04-29 22:11 -20.93652 -64.20202 40086 ft 481 kts 204°
2026-04-29 22:11 -21.00096 -64.22251 40106 ft 482 kts 204°
2026-04-29 22:12 -21.06539 -64.24298 40118 ft 482 kts 204°
2026-04-29 22:12 -21.13004 -64.26355 40130 ft 481 kts 204°
2026-04-29 22:13 -21.19413 -64.28390 40165 ft 483 kts 204°
2026-04-29 22:13 -21.25878 -64.30441 40198 ft 484 kts 202°
2026-04-29 22:14 -21.32586 -64.31780 40191 ft 494 kts 192°
2026-04-29 22:14 -21.39539 -64.31788 40213 ft 506 kts 181°
2026-04-29 22:15 -21.46541 -64.30383 40231 ft 516 kts 170°
2026-04-29 22:15 -21.53472 -64.28210 40206 ft 516 kts 169°
2026-04-29 22:16 -21.60389 -64.26005 40197 ft 517 kts 169°
2026-04-29 22:16 -21.67259 -64.23852 40163 ft 516 kts 169°
2026-04-29 22:17 -21.74207 -64.21690 40125 ft 518 kts 170°
2026-04-29 22:17 -21.81136 -64.19531 40115 ft 517 kts 170°
2026-04-29 22:18 -21.88053 -64.17373 40120 ft 516 kts 170°
2026-04-29 22:18 -21.94956 -64.15220 40126 ft 516 kts 170°
2026-04-29 22:19 -22.01900 -64.13047 40101 ft 518 kts 169°
2026-04-29 22:19 -22.08806 -64.10871 40101 ft 517 kts 170°
2026-04-29 22:20 -22.15748 -64.08696 40054 ft 518 kts 171°
2026-04-29 22:20 -22.22745 -64.06982 40028 ft 509 kts 178°
2026-04-29 22:21 -22.29741 -64.06168 40020 ft 503 kts 185°
2026-04-29 22:21 -22.36746 -64.06091 40005 ft 498 kts 188°
2026-04-29 22:22 -22.43652 -64.06155 40010 ft 499 kts 188°
2026-04-29 22:22 -22.50635 -64.06201 40014 ft 497 kts 188°
2026-04-29 22:23 -22.57564 -64.06235 40025 ft 498 kts 188°
2026-04-29 22:23 -22.64501 -64.06266 40010 ft 497 kts 188°
2026-04-29 22:24 -22.71412 -64.06291 40006 ft 494 kts 188°
2026-04-29 22:24 -22.78276 -64.06319 40007 ft 494 kts 189°
2026-04-29 22:25 -22.85195 -64.06346 39997 ft 494 kts 189°
2026-04-29 22:25 -22.92093 -64.06375 40005 ft 495 kts 189°
2026-04-29 22:26 -22.98976 -64.06403 40004 ft 493 kts 189°
2026-04-29 22:26 -23.05814 -64.06430 39997 ft 492 kts 189°
2026-04-29 22:27 -23.12691 -64.06457 40002 ft 490 kts 189°
2026-04-29 22:27 -23.19522 -64.06485 39990 ft 491 kts 189°
2026-04-29 22:28 -23.26359 -64.06515 39993 ft 492 kts 189°
2026-04-29 22:28 -23.33220 -64.06541 39991 ft 491 kts 189°
2026-04-29 22:29 -23.40067 -64.06568 40000 ft 491 kts 189°
2026-04-29 22:29 -23.46908 -64.06596 39987 ft 490 kts 189°
2026-04-29 22:30 -23.53703 -64.06628 39993 ft 490 kts 189°
2026-04-29 22:30 -23.60535 -64.06651 39998 ft 488 kts 188°
2026-04-29 22:31 -23.67332 -64.06677 39998 ft 490 kts 188°
2026-04-29 22:31 -23.74150 -64.06693 39991 ft 488 kts 189°
2026-04-29 22:32 -23.80961 -64.06723 39996 ft 487 kts 189°
2026-04-29 22:32 -23.87758 -64.06767 40000 ft 488 kts 188°
2026-04-29 22:33 -23.94570 -64.06788 40004 ft 489 kts 188°
2026-04-29 22:33 -24.01362 -64.06795 39997 ft 489 kts 189°
2026-04-29 22:34 -24.08183 -64.06831 39995 ft 489 kts 189°
2026-04-29 22:34 -24.14998 -64.06868 39996 ft 487 kts 189°
2026-04-29 22:35 -24.21806 -64.06892 40003 ft 489 kts 189°
2026-04-29 22:35 -24.28598 -64.06908 40010 ft 488 kts 188°
2026-04-29 22:36 -24.35406 -64.06918 40001 ft 487 kts 189°
2026-04-29 22:36 -24.42227 -64.06943 40002 ft 487 kts 188°
2026-04-29 22:37 -24.49029 -64.06952 40000 ft 487 kts 189°
2026-04-29 22:37 -24.55782 -64.06996 40006 ft 487 kts 189°
2026-04-29 22:38 -24.62603 -64.07045 40007 ft 486 kts 189°
2026-04-29 22:38 -24.69339 -64.07088 40012 ft 486 kts 189°
2026-04-29 22:39 -24.76144 -64.07116 40008 ft 485 kts 189°
2026-04-29 22:39 -24.82878 -64.07152 40007 ft 485 kts 189°
2026-04-29 22:40 -24.89629 -64.07180 40009 ft 485 kts 188°
2026-04-29 22:40 -24.96395 -64.07207 40008 ft 484 kts 188°
2026-04-29 22:41 -25.03162 -64.07231 40021 ft 484 kts 188°
2026-04-29 22:41 -25.09942 -64.07259 40013 ft 485 kts 188°
2026-04-29 22:42 -25.16694 -64.07286 40020 ft 484 kts 188°
2026-04-29 22:42 -25.23444 -64.07313 40009 ft 485 kts 188°
2026-04-29 22:43 -25.30209 -64.07339 40020 ft 484 kts 188°
2026-04-29 22:43 -25.36961 -64.07368 40021 ft 484 kts 188°
2026-04-29 22:44 -25.43723 -64.07394 40010 ft 485 kts 187°
2026-04-29 22:44 -25.50473 -64.07420 40010 ft 485 kts 187°
2026-04-29 22:45 -25.57241 -64.07446 40006 ft 484 kts 187°
2026-04-29 22:45 -25.63953 -64.07469 40005 ft 483 kts 187°
2026-04-29 22:46 -25.70690 -64.07498 40011 ft 484 kts 187°
2026-04-29 22:46 -25.77460 -64.07523 40006 ft 484 kts 187°
2026-04-29 22:47 -25.84170 -64.07550 39999 ft 483 kts 187°
2026-04-29 22:47 -25.90935 -64.07575 40031 ft 483 kts 187°
2026-04-29 22:48 -25.97650 -64.07606 40043 ft 482 kts 186°
2026-04-29 22:48 -26.04369 -64.07610 40019 ft 484 kts 186°
2026-04-29 22:49 -26.11093 -64.07624 40006 ft 483 kts 186°
2026-04-29 22:49 -26.17664 -64.07648 40042 ft 483 kts 186°
2026-04-29 22:50 -26.24404 -64.07674 40029 ft 482 kts 186°
2026-04-29 22:50 -26.31108 -64.07725 40025 ft 482 kts 186°
2026-04-29 22:51 -26.37824 -64.07767 40032 ft 483 kts 186°
2026-04-29 22:51 -26.47917 -64.07811 40022 ft 483 kts 185°
2026-04-29 22:52 -26.54647 -64.07837 40012 ft 483 kts 185°
2026-04-29 22:52 -26.61371 -64.07864 40038 ft 481 kts 185°
2026-04-29 22:53 -26.68122 -64.07884 40016 ft 482 kts 185°
2026-04-29 22:53 -26.74797 -64.07893 40010 ft 481 kts 185°
2026-04-29 22:54 -26.81536 -64.07912 40024 ft 481 kts 184°
2026-04-29 22:54 -26.88212 -64.07936 40010 ft 482 kts 184°
2026-04-29 22:55 -26.94889 -64.08263 40006 ft 478 kts 190°
2026-04-29 22:55 -27.01455 -64.09382 40003 ft 474 kts 196°
2026-04-29 22:56 -27.07858 -64.11109 39998 ft 472 kts 198°
2026-04-29 22:56 -27.14231 -64.12914 39997 ft 471 kts 198°
2026-04-29 22:57 -27.20577 -64.14707 39994 ft 471 kts 198°
2026-04-29 22:57 -27.26971 -64.16509 39994 ft 472 kts 198°
2026-04-29 22:58 -27.33344 -64.18304 39989 ft 471 kts 198°
2026-04-29 22:58 -27.39714 -64.20100 39985 ft 471 kts 198°
2026-04-29 22:59 -27.46047 -64.21886 39986 ft 470 kts 198°
2026-04-29 22:59 -27.52436 -64.23686 39983 ft 470 kts 198°
2026-04-29 23:00 -27.58773 -64.25469 39987 ft 470 kts 198°
2026-04-29 23:00 -27.65116 -64.27258 39990 ft 470 kts 198°
2026-04-29 23:01 -27.71495 -64.28973 39996 ft 471 kts 195°
2026-04-29 23:01 -27.78022 -64.30032 39998 ft 473 kts 189°
2026-04-29 23:02 -27.84629 -64.30296 40000 ft 477 kts 184°
2026-04-29 23:02 -27.91289 -64.30203 40002 ft 477 kts 183°
2026-04-29 23:03 -27.97923 -64.30099 39998 ft 477 kts 183°
2026-04-29 23:03 -28.04564 -64.30006 39997 ft 476 kts 183°
2026-04-29 23:04 -28.11208 -64.29916 39995 ft 477 kts 184°
2026-04-29 23:04 -28.17854 -64.29829 40000 ft 476 kts 184°
2026-04-29 23:05 -28.24452 -64.29742 39999 ft 476 kts 184°
2026-04-29 23:05 -28.31092 -64.29652 39999 ft 475 kts 184°
2026-04-29 23:06 -28.37729 -64.29560 40002 ft 475 kts 184°
2026-04-29 23:06 -28.44336 -64.29467 40001 ft 475 kts 184°
2026-04-29 23:07 -28.50968 -64.29372 39998 ft 475 kts 184°
2026-04-29 23:07 -28.57574 -64.29275 39998 ft 476 kts 184°
2026-04-29 23:08 -28.64231 -64.29168 39997 ft 475 kts 183°
2026-04-29 23:08 -28.70822 -64.28974 39996 ft 474 kts 183°
2026-04-29 23:09 -28.77436 -64.28762 39996 ft 474 kts 183°
2026-04-29 23:09 -28.84037 -64.28548 39993 ft 475 kts 183°
2026-04-29 23:10 -28.90646 -64.28336 39990 ft 474 kts 183°
2026-04-29 23:10 -28.93940 -64.28230 39643 ft 473 kts 183°
2026-04-29 23:10 -28.97231 -64.28127 38732 ft 476 kts 183°
2026-04-29 23:11 -29.00531 -64.28023 37674 ft 482 kts 183°
2026-04-29 23:11 -29.03896 -64.27917 36751 ft 483 kts 182°
2026-04-29 23:11 -29.07241 -64.27809 35959 ft 483 kts 182°
2026-04-29 23:11 -29.10595 -64.27698 35167 ft 482 kts 182°
2026-04-29 23:12 -29.13950 -64.27587 34330 ft 483 kts 182°
2026-04-29 23:12 -29.17335 -64.27476 33447 ft 484 kts 182°
2026-04-29 23:12 -29.20694 -64.27366 32630 ft 485 kts 182°
2026-04-29 23:12 -29.24063 -64.27255 31863 ft 484 kts 182°
2026-04-29 23:13 -29.27396 -64.27145 31148 ft 483 kts 182°
2026-04-29 23:13 -29.30761 -64.27030 30454 ft 480 kts 181°
2026-04-29 23:13 -29.34092 -64.26916 29770 ft 478 kts 181°
2026-04-29 23:13 -29.37385 -64.26801 29092 ft 475 kts 181°
2026-04-29 23:14 -29.40700 -64.26688 28408 ft 473 kts 181°
2026-04-29 23:14 -29.43968 -64.26581 27697 ft 471 kts 181°
2026-04-29 23:14 -29.47221 -64.26483 27120 ft 466 kts 182°
2026-04-29 23:14 -29.50470 -64.26391 26722 ft 459 kts 182°
2026-04-29 23:15 -29.53625 -64.26298 26218 ft 455 kts 182°
2026-04-29 23:15 -29.56750 -64.26202 25746 ft 449 kts 182°
2026-04-29 23:15 -29.59888 -64.26105 25250 ft 445 kts 181°
2026-04-29 23:15 -29.62953 -64.26007 24750 ft 441 kts 181°
2026-04-29 23:16 -29.66020 -64.25907 24275 ft 436 kts 181°
2026-04-29 23:16 -29.69028 -64.25809 23769 ft 433 kts 181°
2026-04-29 23:16 -29.72042 -64.25712 23316 ft 428 kts 181°
2026-04-29 23:16 -29.74987 -64.25615 22711 ft 425 kts 181°
2026-04-29 23:17 -29.77937 -64.25517 22311 ft 423 kts 182°
2026-04-29 23:17 -29.80896 -64.25418 22035 ft 422 kts 182°
2026-04-29 23:17 -29.83782 -64.25320 21889 ft 416 kts 182°
2026-04-29 23:17 -29.86661 -64.25224 21626 ft 409 kts 182°
2026-04-29 23:18 -29.89496 -64.25131 21170 ft 405 kts 183°
2026-04-29 23:18 -29.92299 -64.25039 20619 ft 403 kts 183°
2026-04-29 23:18 -29.95125 -64.24947 20073 ft 400 kts 183°
2026-04-29 23:18 -29.97897 -64.24857 19592 ft 399 kts 183°
2026-04-29 23:19 -30.00665 -64.24766 19134 ft 399 kts 183°
2026-04-29 23:19 -30.03425 -64.24675 18694 ft 399 kts 183°
2026-04-29 23:19 -30.06207 -64.24583 18256 ft 399 kts 184°
2026-04-29 23:19 -30.08972 -64.24492 17827 ft 398 kts 184°
2026-04-29 23:20 -30.11777 -64.24398 17399 ft 398 kts 184°
2026-04-29 23:20 -30.14545 -64.24308 16975 ft 397 kts 184°
2026-04-29 23:20 -30.17301 -64.24218 16551 ft 396 kts 184°
2026-04-29 23:20 -30.20052 -64.24127 16125 ft 396 kts 184°
2026-04-29 23:21 -30.22790 -64.24038 15701 ft 394 kts 184°
2026-04-29 23:21 -30.25543 -64.23946 15277 ft 393 kts 184°
2026-04-29 23:21 -30.28269 -64.23854 14855 ft 391 kts 184°
2026-04-29 23:21 -30.30976 -64.23759 14434 ft 389 kts 183°
2026-04-29 23:22 -30.33686 -64.23666 14012 ft 387 kts 183°
2026-04-29 23:22 -30.36368 -64.23576 13592 ft 385 kts 183°
2026-04-29 23:22 -30.39063 -64.23485 13169 ft 384 kts 183°
2026-04-29 23:22 -30.41707 -64.23399 12752 ft 381 kts 182°
2026-04-29 23:23 -30.44379 -64.23311 12326 ft 380 kts 182°
2026-04-29 23:23 -30.47017 -64.23223 11901 ft 378 kts 182°
2026-04-29 23:23 -30.49628 -64.23131 11478 ft 376 kts 181°
2026-04-29 23:23 -30.52263 -64.23037 11047 ft 375 kts 181°
2026-04-29 23:24 -30.54846 -64.22944 10729 ft 372 kts 181°
2026-04-29 23:24 -30.57429 -64.22854 10627 ft 373 kts 180°
2026-04-29 23:24 -30.60057 -64.22764 10499 ft 373 kts 180°
2026-04-29 23:24 -30.62643 -64.22679 10369 ft 373 kts 180°
2026-04-29 23:25 -30.65205 -64.22594 10244 ft 359 kts 180°
2026-04-29 23:25 -30.67655 -64.22515 10132 ft 344 kts 179°
2026-04-29 23:25 -30.70008 -64.22434 10029 ft 331 kts 179°
2026-04-29 23:25 -30.72280 -64.22355 9869 ft 320 kts 179°
2026-04-29 23:26 -30.74473 -64.22274 9614 ft 314 kts 179°
2026-04-29 23:26 -30.76653 -64.22195 9311 ft 309 kts 178°
2026-04-29 23:26 -30.78768 -64.22119 9028 ft 305 kts 178°
2026-04-29 23:26 -30.80901 -64.22042 8742 ft 300 kts 178°
2026-04-29 23:27 -30.82958 -64.21968 8469 ft 296 kts 178°
2026-04-29 23:27 -30.85028 -64.21892 8196 ft 291 kts 177°
2026-04-29 23:27 -30.87038 -64.21812 7931 ft 287 kts 176°
2026-04-29 23:27 -30.89015 -64.21691 7652 ft 284 kts 176°
2026-04-29 23:28 -30.91000 -64.21579 7319 ft 282 kts 176°
2026-04-29 23:28 -30.92940 -64.21492 6969 ft 282 kts 177°
2026-04-29 23:28 -30.94903 -64.21425 6719 ft 277 kts 178°
2026-04-29 23:28 -30.96808 -64.21374 6480 ft 271 kts 178°
2026-04-29 23:29 -30.98668 -64.21336 6282 ft 265 kts 178°
2026-04-29 23:29 -31.00503 -64.21310 6052 ft 260 kts 178°
2026-04-29 23:29 -31.02306 -64.21287 5955 ft 255 kts 178°
2026-04-29 23:29 -31.04070 -64.21265 5948 ft 250 kts 178°
2026-04-29 23:30 -31.05770 -64.21243 5942 ft 235 kts 179°
2026-04-29 23:30 -31.07359 -64.21227 5843 ft 222 kts 179°
2026-04-29 23:30 -31.08886 -64.21207 5617 ft 215 kts 179°
2026-04-29 23:30 -31.10365 -64.21184 5332 ft 212 kts 179°
2026-04-29 23:31 -31.11847 -64.21159 5046 ft 208 kts 178°
2026-04-29 23:31 -31.13284 -64.21134 4770 ft 205 kts 178°
2026-04-29 23:31 -31.14711 -64.21107 4496 ft 202 kts 178°
2026-04-29 23:31 -31.16099 -64.21081 4228 ft 198 kts 178°
2026-04-29 23:32 -31.17471 -64.21056 3963 ft 194 kts 178°
2026-04-29 23:32 -31.18812 -64.21035 3706 ft 190 kts 179°
2026-04-29 23:32 -31.20116 -64.21014 3444 ft 182 kts 179°
2026-04-29 23:32 -31.21345 -64.20995 3200 ft 169 kts 179°
2026-04-29 23:33 -31.22506 -64.20976 2989 ft 164 kts 178°
2026-04-29 23:33 -31.23637 -64.20955 2789 ft 164 kts 178°
2026-04-29 23:33 -31.24776 -64.20932 2585 ft 163 kts 178°
2026-04-29 23:33 -31.25924 -64.20914 2362 ft 162 kts 179°
2026-04-29 23:34 -31.27049 -64.20905 2140 ft 162 kts 178°
2026-04-29 23:34 -31.28179 -64.20884 1930 ft 161 kts 178°
2026-04-29 23:34 -31.29293 -64.20866 1725 ft 160 kts 178°
2026-04-29 23:34 -31.30383 -64.20842 1623 ft 144 kts 179°
2026-04-29 23:35 -31.31216 -64.20830 1622 ft 87 kts 179°
2026-04-29 23:35 -31.31598 -64.20828 1622 ft 29 kts 189°
2026-04-29 23:35 -31.31758 -64.20915 1622 ft 16 kts 213°
2026-04-29 23:35 -31.31787 -64.21019 1622 ft 15 kts 289°
2026-04-29 23:36 -31.31761 -64.21067 1622 ft 2 kts 309°
2026-04-29 23:36 -31.31738 -64.21089 1622 ft 7 kts 338°
2026-04-29 23:36 -31.31632 -64.21098 1622 ft 21 kts
2026-04-29 23:36 -31.31545 -64.21081 1622 ft 6 kts 333°
2026-04-29 23:37 -31.31538 -64.21106 1622 ft 3 kts 248°
2026-04-29 23:37 -31.31542 -64.21137 1622 ft 1 kts 268°
2026-04-29 23:37 -31.31542 -64.21148 1622 ft 1 kts 268°
2026-04-29 23:37 -31.31542 -64.21156 1622 ft 0 kts 268°